Notices

What's New in latest Release from April 7th, 2021:

- Updated Glossary, including Speed of Maximum Gust, and Total Hourly Precipitation

- Updated national and regional climate services offices contacts and prices information

- Addition of station inventory lists for 1981-2010, 1971-2000, and 1961-1990 Normals.

If you haven't already, please take our survey and provide feedback about our website: https://eccc.sondage-survey.ca/f/LanguageSelection.aspx?s=442ca660-fcf1-47c0-95a9-59707d6fd709

Hourly Data Report for December 19, 2004

SHERBROOKE A
QUEBEC

45°26'00.000" N
71°41'00.000" W
241.40 m
7028124
71610
YSC

Download Data

Hourly Data (December 2004)
Hourly Data Report for December 19, 2004
TIME
LST
Temp Definition
°C
Dew Point Definition
°C
Rel Hum Definition
%
Precip. Amount Definition
mm

Wind Dir Definition
10's deg

Wind Spd Definition
km/h
Visibility Definition
km
Stn Press Definition
kPa
Hmdx Definition


Wind Chill Definition


Weather Definition


00:00 -7.6 -10.3 81   13 4 15.0 98.30   -10  
01:00 -6.8 -9.6 80   12 7 15.0 98.20   -10  
02:00 -7.3 -9.6 84   9 4 15.0 98.16   -9  
03:00 -5.1 -8.7 76   14 13 15.0 98.02   -10  
04:00 -5.1 -8.3 78   9 11 15.0 97.97   -10  
05:00 -4.8 -8.2 77   12 15 15.0 97.83   -10  
06:00 -4.7 -7.8 79   13 6 15.0 97.87   -7  
07:00 -6.4 -8.2 87     0 15.0 97.80      
08:00 -7.6 -9.4 87     0 24.1 97.72     Mostly Cloudy
09:00 -2.9 -6.4 77   16 6 24.1 97.70   -5 Mostly Cloudy
10:00 -1.9 -5.5 76   8 4 24.1 97.65   -3 Mostly Cloudy
11:00 -1.2 -5.4 73     0 24.1 97.56     Mostly Cloudy
12:00 -0.9 -4.5 77   36 4 16.1 97.49   -2 Snow
13:00 -0.5 -3.4 81     0 16.1 97.44     Snow
14:00 -0.5 -2.6 86   1 4 16.1 97.39   -2 Snow
15:00 -0.3 -2.2 87     0 19.3 97.39     Cloudy
16:00 -0.7 -2.4 88     0 19.3 97.43     Cloudy
17:00 -0.7 -2.0 91   4 6 19.3 97.45   -3 Cloudy
18:00 -2.8 -4.7 87   29 26 8.0 97.54   -10 Snow
19:00 -8.5 -10.9 83   29 20 4.0 97.69   -16 Snow
20:00 -11.4 -13.6 84   29 20 1.1 97.85   -20 Snow
21:00 -13.3 -15.9 81   29 20 3.2 97.92   -22 Snow
22:00 -14.9 -17.4 81   29 19 2.1 98.02   -24 Snow
23:00 -16.0 -18.6 80   27 22 2.4 98.05   -26 Snow

Notes on Data Quality.

Legend

  • E = Estimated
  • M = Missing
  • NA = Not Available*
  • [empty] = Indicates an unobserved value
Date modified: